Lefor, ND

12:02 AM MST on February 14, 2016 (GMT -0700)
Dickinson Municipal

Weather History for KDIK - January, 2011

Change the Weather History Date:

Friday, January 7, 2011

  Actual Average Record
Temperature  
Mean Temperature 24 °F 16 °F  
Max Temperature 30 °F 26 °F 58 °F (1914)
Min Temperature 17 °F 6 °F -33 °F (1942)
Degree Days  
Heating Degree Days 41 49  
Month to date heating degree days 336 343  
Since 1 July heating degree days 3890 3880  
Cooling Degree Days 0 0  
Month to date cooling degree days 0 0  
Year to date cooling degree days 0 0  
Moisture  
Dew Point 19 °F    
Average Humidity 84    
Maximum Humidity 92    
Minimum Humidity 75    
Precipitation  
Precipitation T in 0.01 in 0.15 in (1906)
Month to date precipitation 0.02 0.07  
Year to date precipitation 0.02 0.07  
Sea Level Pressure  
Sea Level Pressure 29.97 in    
Wind  
Wind Speed 17 mph (NNW)    
Max Wind Speed 31 mph    
Max Gust Speed 38 mph    
Visibility 9 miles    
Events Snow    
T = Trace of Precipitation, MM = Missing Value Source: NWS Daily Summary

Daily Weather History Graph

Daily Weather History Graph

Search for Another Location

Airport or City:

Trip Planner

Search our weather history database for the weather conditions in past years. The results will help you decide how hot, cold, wet, or windy it might be!

Date:

Astronomy

Jan. 07, 2011 Rise Set
Actual Time 7:35 AM MST 4:19 PM MST
Civil Twilight 7:00 AM MST 4:54 PM MST
Nautical Twilight 6:22 AM MST 5:32 PM MST
Astronomical Twilight 5:45 AM MST 6:09 PM MST
Moon 9:06 AM MST (1/7) 8:12 PM MST (1/7)
Length of Visible Light 9h 53m
Length of Day
8h 44m
Waxing Crescent, 11% of the Moon is Illuminated
Jan 7
Waxing Crescent
Jan 12
First Quarter
Jan 19
Full
Jan 26
Last Quarter
Feb 2
New

Hourly Weather History & Observations

Time (MST) Temp. Windchill Dew Point Humidity Pressure Visibility Wind Dir Wind Speed Gust Speed Precip Events Conditions
12:56 AM 27.0 °F 12.2 °F 19.9 °F 75% 29.88 in 10.0 mi WNW 24.2 mph - N/A   Clear
1:56 AM 26.1 °F 10.4 °F 19.0 °F 75% 29.90 in 10.0 mi WNW 26.5 mph 34.5 mph N/A   Clear
2:56 AM 27.0 °F 11.0 °F 19.9 °F 75% 29.91 in 10.0 mi WNW 28.8 mph 35.7 mph N/A   Overcast
3:05 AM 26.6 °F 10.3 °F 19.4 °F 74% 29.84 in 10.0 mi WNW 29.9 mph 35.7 mph N/A   Overcast
3:56 AM 26.1 °F 10.1 °F 19.9 °F 78% 29.93 in 10.0 mi WNW 27.6 mph 35.7 mph N/A   Overcast
4:45 AM 26.6 °F 10.8 °F 21.2 °F 80% 29.87 in 10.0 mi NW 27.6 mph - N/A   Overcast
4:56 AM 26.1 °F 11.0 °F 21.0 °F 81% 29.95 in 10.0 mi WNW 24.2 mph 32.2 mph N/A   Overcast
5:43 AM 26.6 °F 12.0 °F 21.2 °F 80% 29.88 in 10.0 mi NW 23.0 mph 27.6 mph N/A   Overcast
5:56 AM 26.1 °F 11.6 °F 21.9 °F 84% 29.97 in 10.0 mi NW 21.9 mph - N/A   Overcast
6:56 AM 26.1 °F 12.3 °F 21.9 °F 84% 29.99 in 10.0 mi WNW 19.6 mph - N/A   Overcast
8:56 AM 25.0 °F 9.9 °F 23.0 °F 92% 30.03 in 10.0 mi NW 23.0 mph - N/A   Overcast
9:56 AM 26.1 °F 12.7 °F 23.0 °F 88% 30.05 in 4.0 mi NW 18.4 mph - 0.00 in   Overcast
10:25 AM 26.6 °F 13.1 °F 23.0 °F 86% 29.95 in 2.5 mi NW 19.6 mph - 0.00 in Snow Light Snow
10:27 AM 24.8 °F 11.1 °F 23.0 °F 93% 29.95 in 1.5 mi NNW 18.4 mph - 0.00 in Snow Light Snow
10:37 AM 24.8 °F 11.5 °F 21.2 °F 86% 29.95 in 3.0 mi North 17.3 mph 25.3 mph 0.00 in Snow Light Snow
10:49 AM 24.8 °F 9.6 °F 21.2 °F 86% 29.95 in 6.0 mi North 23.0 mph 28.8 mph 0.00 in   Overcast
10:56 AM 25.0 °F 10.6 °F 19.9 °F 81% 30.04 in 5.0 mi North 20.7 mph 31.1 mph 0.00 in   Haze
11:56 AM 25.0 °F 9.9 °F 19.0 °F 78% 30.03 in 10.0 mi NNW 23.0 mph - N/A   Overcast
12:56 PM 24.1 °F 10.6 °F 19.0 °F 81% 30.04 in 10.0 mi NNW 17.3 mph 25.3 mph N/A   Overcast
1:56 PM 24.1 °F 12.0 °F 19.0 °F 81% 30.02 in 10.0 mi NNW 13.8 mph - N/A   Overcast
2:56 PM 23.0 °F 10.1 °F 18.0 °F 81% 30.03 in 10.0 mi NNW 15.0 mph - N/A   Overcast
3:56 PM 21.9 °F 9.2 °F 18.0 °F 85% 30.03 in 10.0 mi NNW 13.8 mph - N/A   Overcast
4:56 PM 21.9 °F 10.4 °F 17.1 °F 82% 30.03 in 10.0 mi NNW 11.5 mph - N/A   Overcast
5:18 PM 21.2 °F 9.5 °F 17.6 °F 86% 29.91 in 10.0 mi NNW 11.5 mph - N/A   Overcast
5:56 PM 21.0 °F 8.1 °F 17.1 °F 85% 30.01 in 10.0 mi NNW 13.8 mph - N/A   Overcast
7:56 PM 19.9 °F 8.6 °F 16.0 °F 85% 29.99 in 10.0 mi NW 10.4 mph - N/A   Overcast
8:56 PM 19.0 °F 11.1 °F 16.0 °F 88% 29.98 in 10.0 mi North 5.8 mph - N/A   Overcast
9:56 PM 19.0 °F 13.9 °F 16.0 °F 88% 29.97 in 10.0 mi NNW 3.5 mph - N/A   Overcast
10:56 PM 19.0 °F 12.3 °F 15.1 °F 85% 29.96 in 10.0 mi NNE 4.6 mph - N/A   Overcast
11:56 PM 17.1 °F 10.0 °F 14.0 °F 88% 29.94 in 10.0 mi ENE 4.6 mph - N/A   Overcast